Location: Lafig�re
(44.4503°N, 4.0357°E)
Time: 16:40:11
(UTC+00:00)

SJ-11-01 - Pass Details

Date: 24 September 2020
Orbit: 684 x 701 km, 98.0° (Epoch: 21 October)

Event Time Altitude Azimuth Distance (km) Brightness Sun altitude
Rises 18:45:49 0° 167° (SSE) 3,061 7.4 -13.1°
Reaches altitude 10° 18:48:04 10° 168° (SSE) 2,145 6.6 -13.4°
Maximum altitude 18:52:46 83° 256° (WSW) 703 4.3 -14.3°
Drops below altitude 10° 18:57:30 10° 345° (NNW) 2,151 7.2 -15.1°
Sets 18:59:45 0° 347° (NNW) 3,069 8.0 -15.5°
